TimeCDT,TemperatureF,Dew PointF,Humidity,Sea Level PressureIn,VisibilityMPH,Wind Direction,Wind SpeedMPH,Gust SpeedMPH,PrecipitationIn,Events,Conditions,WindDirDegrees,DateUTC
12:53 AM,72.0,69.1,91,29.87,9.0,East,4.6,-,0.00,Rain,Light Rain,90,2013-06-18 05:53:00
1:36 AM,71.6,69.8,94,29.88,9.0,NE,3.5,-,0.03,Rain,Light Rain,50,2013-06-18 06:36:00
1:45 AM,71.6,69.8,94,29.88,8.0,Calm,Calm,-,0.03,Rain,Light Rain,0,2013-06-18 06:45:00
1:53 AM,71.1,69.1,93,29.86,6.0,NNE,5.8,-,0.04,Rain,Rain,20,2013-06-18 06:53:00
2:53 AM,69.1,66.9,93,29.85,4.0,ENE,6.9,-,0.21,Rain,Rain,60,2013-06-18 07:53:00
3:17 AM,68.0,66.2,94,29.86,2.5,NE,10.4,-,0.14,Rain,Heavy Rain,50,2013-06-18 08:17:00
3:28 AM,68.0,66.2,94,29.86,5.0,ENE,8.1,-,0.17,Rain,Light Rain,70,2013-06-18 08:28:00
3:41 AM,68.0,66.2,94,29.86,3.0,ENE,8.1,-,0.20,Rain,Heavy Rain,70,2013-06-18 08:41:00
3:49 AM,68.0,66.2,94,29.85,2.0,ENE,5.8,-,0.29,Rain,Heavy Rain,70,2013-06-18 08:49:00
3:53 AM,68.0,66.0,93,29.83,2.5,ENE,6.9,-,0.33,Rain,Heavy Rain,70,2013-06-18 08:53:00
4:08 AM,68.0,66.2,94,29.85,4.0,East,6.9,-,0.09,Rain,Rain,90,2013-06-18 09:08:00
4:53 AM,69.1,68.0,96,29.84,6.0,Calm,Calm,-,0.14,Rain,Light Rain,0,2013-06-18 09:53:00
5:05 AM,69.8,66.2,88,29.85,10.0,Calm,Calm,-,0.00,Rain,Light Rain,0,2013-06-18 10:05:00
5:10 AM,69.8,68.0,94,29.84,6.0,East,3.5,-,0.00,Fog-Rain,Light Rain,90,2013-06-18 10:10:00
5:42 AM,69.8,66.2,88,29.85,2.0,North,5.8,-,0.00,Fog,Overcast,10,2013-06-18 10:42:00
5:53 AM,69.1,66.9,93,29.84,2.0,North,6.9,-,0.00,Fog,Overcast,10,2013-06-18 10:53:00
6:53 AM,69.1,66.9,93,29.86,1.5,North,6.9,-,N/A,Fog,Overcast,360,2013-06-18 11:53:00
7:15 AM,69.8,66.2,88,29.89,2.0,NNW,4.6,-,0.01,Fog,Overcast,340,2013-06-18 12:15:00
7:53 AM,69.1,66.9,93,29.88,2.0,North,5.8,-,0.01,Fog,Overcast,350,2013-06-18 12:53:00
8:32 AM,69.8,66.2,88,29.92,0.5,NNW,10.4,-,N/A,Fog,Overcast,330,2013-06-18 13:32:00
8:44 AM,68.0,66.2,94,29.93,1.0,NNW,9.2,-,0.01,Fog-Rain,Light Rain,340,2013-06-18 13:44:00
8:53 AM,68.0,66.0,93,29.91,1.0,North,10.4,-,0.01,Fog-Rain,Light Rain,350,2013-06-18 13:53:00
9:01 AM,68.0,66.2,94,29.93,2.0,North,10.4,-,0.01,Fog-Rain,Light Rain,350,2013-06-18 14:01:00
9:46 AM,68.0,64.4,88,29.94,6.0,North,10.4,-,0.02,,Overcast,350,2013-06-18 14:46:00
9:53 AM,68.0,64.9,90,29.92,7.0,North,13.8,-,0.02,,Overcast,360,2013-06-18 14:53:00
10:25 AM,69.8,66.2,88,29.95,10.0,North,8.1,-,N/A,,Overcast,350,2013-06-18 15:25:00
10:53 AM,70.0,66.0,87,29.94,10.0,North,11.5,-,N/A,,Overcast,360,2013-06-18 15:53:00
11:25 AM,73.4,66.2,78,29.96,10.0,North,11.5,-,N/A,,Overcast,360,2013-06-18 16:25:00
11:53 AM,75.9,64.9,69,29.94,10.0,NNE,17.3,24.2,N/A,,Mostly Cloudy,30,2013-06-18 16:53:00
12:28 PM,78.8,66.2,65,29.95,10.0,NNE,11.5,-,N/A,,Mostly Cloudy,20,2013-06-18 17:28:00
12:53 PM,77.0,64.0,64,29.94,10.0,North,11.5,-,N/A,,Mostly Cloudy,10,2013-06-18 17:53:00
1:20 PM,78.8,64.4,61,29.94,10.0,NNE,15.0,20.7,N/A,,Mostly Cloudy,30,2013-06-18 18:20:00
1:53 PM,82.0,64.9,56,29.93,10.0,NNE,11.5,18.4,N/A,,Mostly Cloudy,30,2013-06-18 18:53:00
2:53 PM,81.0,61.0,50,29.92,10.0,NE,11.5,-,N/A,,Mostly Cloudy,40,2013-06-18 19:53:00
3:53 PM,82.9,62.1,49,29.91,10.0,NE,8.1,-,N/A,,Mostly Cloudy,50,2013-06-18 20:53:00
4:53 PM,84.0,62.1,47,29.90,10.0,North,9.2,-,N/A,,Scattered Clouds,360,2013-06-18 21:53:00
5:53 PM,82.9,62.1,49,29.89,10.0,NE,9.2,-,N/A,,Mostly Cloudy,40,2013-06-18 22:53:00
6:53 PM,81.0,61.0,50,29.90,10.0,NNE,4.6,-,N/A,,Mostly Cloudy,20,2013-06-18 23:53:00
7:53 PM,78.1,62.1,58,29.92,10.0,NNE,4.6,-,N/A,,Mostly Cloudy,20,2013-06-19 00:53:00
8:53 PM,73.9,64.0,71,29.93,10.0,Calm,Calm,-,N/A,,Mostly Cloudy,0,2013-06-19 01:53:00
9:53 PM,75.0,64.0,69,29.94,10.0,North,3.5,-,N/A,,Mostly Cloudy,360,2013-06-19 02:53:00
10:53 PM,73.0,64.9,76,29.96,10.0,Calm,Calm,-,N/A,,Mostly Cloudy,0,2013-06-19 03:53:00
11:53 PM,70.0,64.9,84,29.96,10.0,Calm,Calm,-,N/A,,Mostly Cloudy,0,2013-06-19 04:53:00